When you browse on this site, cookies collect data to enhance your experience and personalize the content and advertising you see.
Visit our Privacy Policy to learn more. By continuing to use the site, you agree to this use of cookies and data.
  • In Switzerland
  • List of Countries
  • For 7 days
  • Water Temperature
  • Satellite Maps
  • Weather Map
  • Weather Widgets
  • user-avatar
    Login

    Hourly Weather Karakol

    Today, 18 June, Tuesday

    Time Temperature Precipitation Wind Pressure Humidity
    00:00 +12°C° 0 mm 1 mps 604 mmHg 58%
    01:00 +12°C° 0 mm 1 mps 604 mmHg 58%
    02:00 +11°C° 0 mm 1 mps 604 mmHg 58%
    03:00 +12°C° 0 mm 1 mps 604 mmHg 57%
    04:00 +12°C° 0 mm 1 mps 604 mmHg 56%
    05:00 +13°C° 0 mm 2 mps 604 mmHg 52%
    06:00 +15°C° 0 mm 2 mps 605 mmHg 49%
    07:00 +18°C° 0 mm 1 mps 606 mmHg 47%
    08:00 +19°C° 0 mm 1 mps 606 mmHg 45%
    09:00 +19°C° 0.1 mm 2 mps 606 mmHg 43%
    10:00 +20°C° 0.1 mm 2 mps 606 mmHg 42%
    11:00 +21°C° 0.1 mm 3 mps 607 mmHg 40%
    12:00 +21°C° 0.2 mm 3 mps 606 mmHg 41%
    13:00 +21°C° 0.2 mm 3 mps 606 mmHg 41%
    14:00 +21°C° 0.2 mm 3 mps 606 mmHg 42%
    15:00 +21°C° 0.3 mm 3 mps 606 mmHg 42%
    16:00 +21°C° 0.3 mm 3 mps 606 mmHg 43%
    17:00 +20°C° 0.3 mm 2 mps 607 mmHg 44%
    18:00 +18°C° 0.1 mm 2 mps 606 mmHg 51%
    19:00 +16°C° 0.1 mm 2 mps 606 mmHg 59%
    20:00 +14°C° 0.1 mm 2 mps 606 mmHg 67%
    21:00 +13°C° 0.1 mm 2 mps 606 mmHg 71%
    22:00 +13°C° 0.1 mm 1 mps 606 mmHg 75%
    23:00 +12°C° 0.1 mm 1 mps 606 mmHg 79%

    Tomorrow, 19 June, Wednesday

    Time Temperature Precipitation Wind Pressure Humidity
    00:00 +12°C° 0 mm 1 mps 605 mmHg 79%
    01:00 +11°C° 0 mm 1 mps 605 mmHg 80%
    02:00 +11°C° 0 mm 1 mps 604 mmHg 81%
    03:00 +11°C° 0 mm 1 mps 604 mmHg 79%
    04:00 +12°C° 0 mm 1 mps 605 mmHg 77%
    05:00 +12°C° 0 mm 1 mps 605 mmHg 75%
    06:00 +14°C° 0 mm 1 mps 605 mmHg 69%
    07:00 +15°C° 0 mm 1 mps 606 mmHg 63%
    08:00 +18°C° 0 mm 1 mps 606 mmHg 56%
    09:00 +18°C° 0.2 mm 2 mps 606 mmHg 53%
    10:00 +19°C° 0.2 mm 2 mps 606 mmHg 50%
    11:00 +20°C° 0.2 mm 3 mps 607 mmHg 47%
    12:00 +20°C° 0.4 mm 3 mps 606 mmHg 48%
    13:00 +20°C° 0.4 mm 3 mps 606 mmHg 48%
    14:00 +21°C° 0.4 mm 3 mps 606 mmHg 48%
    15:00 +20°C° 0.4 mm 3 mps 606 mmHg 48%
    16:00 +20°C° 0.4 mm 3 mps 606 mmHg 48%
    17:00 +20°C° 0.4 mm 2 mps 606 mmHg 48%
    18:00 +18°C° 0.3 mm 2 mps 606 mmHg 57%
    19:00 +16°C° 0.3 mm 2 mps 605 mmHg 67%
    20:00 +13°C° 0.3 mm 2 mps 605 mmHg 76%
    21:00 +13°C° 0.2 mm 2 mps 605 mmHg 77%
    22:00 +13°C° 0.2 mm 1 mps 605 mmHg 78%
    23:00 +13°C° 0.2 mm 1 mps 605 mmHg 79%

    Day after tomorrow, 20 June, Thursday

    Time Temperature Precipitation Wind Pressure Humidity
    00:00 +13°C° 0 mm 1 mps 605 mmHg 80%
    01:00 +12°C° 0 mm 1 mps 605 mmHg 81%
    02:00 +12°C° 0 mm 1 mps 604 mmHg 82%
    03:00 +12°C° 0 mm 1 mps 604 mmHg 82%
    04:00 +12°C° 0 mm 1 mps 605 mmHg 82%
    05:00 +11°C° 0 mm 0 mps 605 mmHg 82%
    06:00 +14°C° 0 mm 1 mps 606 mmHg 77%
    07:00 +15°C° 0 mm 1 mps 606 mmHg 72%
    08:00 +16°C° 0 mm 1 mps 607 mmHg 67%
    09:00 +18°C° 0.1 mm 2 mps 607 mmHg 61%
    10:00 +19°C° 0.1 mm 2 mps 607 mmHg 56%
    11:00 +20°C° 0.1 mm 3 mps 607 mmHg 51%
    12:00 +20°C° 0.3 mm 3 mps 607 mmHg 49%
    13:00 +21°C° 0.3 mm 3 mps 607 mmHg 48%
    14:00 +21°C° 0.3 mm 3 mps 607 mmHg 47%
    15:00 +21°C° 0.3 mm 3 mps 607 mmHg 49%
    16:00 +20°C° 0.3 mm 3 mps 607 mmHg 51%
    17:00 +20°C° 0.3 mm 2 mps 607 mmHg 53%
    18:00 +18°C° 0.2 mm 2 mps 606 mmHg 60%
    19:00 +16°C° 0.2 mm 1 mps 606 mmHg 68%
    20:00 +14°C° 0.2 mm 1 mps 605 mmHg 76%
    21:00 +13°C° 0.1 mm 1 mps 605 mmHg 77%
    22:00 +13°C° 0.1 mm 1 mps 605 mmHg 78%
    23:00 +12°C° 0.1 mm 1 mps 605 mmHg 79%

    21 June, Friday

    Time Temperature Precipitation Wind Pressure Humidity
    00:00 +12°C° 0 mm 1 mps 605 mmHg 78%
    01:00 +12°C° 0 mm 1 mps 605 mmHg 77%
    02:00 +12°C° 0 mm 1 mps 605 mmHg 76%
    03:00 +12°C° 0 mm 1 mps 605 mmHg 74%
    04:00 +13°C° 0 mm 1 mps 605 mmHg 72%
    05:00 +12°C° 0 mm 0 mps 605 mmHg 71%
    06:00 +15°C° 0.1 mm 1 mps 606 mmHg 65%
    07:00 +18°C° 0.1 mm 1 mps 607 mmHg 59%
    08:00 +19°C° 0.1 mm 1 mps 608 mmHg 53%
    09:00 +19°C° 0.3 mm 2 mps 608 mmHg 50%
    10:00 +21°C° 0.3 mm 2 mps 608 mmHg 47%
    11:00 +22°C° 0.3 mm 3 mps 608 mmHg 44%
    12:00 +22°C° 0.3 mm 3 mps 608 mmHg 43%
    13:00 +22°C° 0.3 mm 3 mps 608 mmHg 43%
    14:00 +24°C° 0.3 mm 3 mps 608 mmHg 42%
    15:00 +22°C° 0.3 mm 3 mps 608 mmHg 43%
    16:00 +22°C° 0.3 mm 3 mps 607 mmHg 45%
    17:00 +21°C° 0.3 mm 3 mps 607 mmHg 46%
    18:00 +19°C° 0.2 mm 2 mps 607 mmHg 53%
    19:00 +17°C° 0.2 mm 2 mps 606 mmHg 61%
    20:00 +15°C° 0.2 mm 1 mps 605 mmHg 68%
    21:00 +15°C° 0 mm 1 mps 605 mmHg 66%
    22:00 +15°C° 0 mm 1 mps 605 mmHg 65%
    23:00 +14°C° 0 mm 1 mps 605 mmHg 63%

    22 June, Saturday

    Time Temperature Precipitation Wind Pressure Humidity
    00:00 +14°C° 0 mm 1 mps 605 mmHg 63%
    01:00 +14°C° 0 mm 1 mps 604 mmHg 63%
    02:00 +13°C° 0 mm 1 mps 604 mmHg 63%
    03:00 +13°C° 0 mm 1 mps 604 mmHg 63%
    04:00 +13°C° 0 mm 1 mps 604 mmHg 64%
    05:00 +13°C° 0 mm 1 mps 604 mmHg 64%
    06:00 +15°C° 0 mm 1 mps 605 mmHg 59%
    07:00 +18°C° 0 mm 1 mps 606 mmHg 53%
    08:00 +20°C° 0 mm 1 mps 607 mmHg 48%
    09:00 +20°C° 0.1 mm 2 mps 607 mmHg 45%
    10:00 +21°C° 0.1 mm 3 mps 607 mmHg 42%
    11:00 +24°C° 0.1 mm 3 mps 607 mmHg 39%
    12:00 +23°C° 0.2 mm 4 mps 607 mmHg 40%
    13:00 +23°C° 0.2 mm 4 mps 607 mmHg 40%
    14:00 +23°C° 0.2 mm 4 mps 607 mmHg 41%
    15:00 +22°C° 0.2 mm 4 mps 607 mmHg 44%
    16:00 +21°C° 0.2 mm 3 mps 607 mmHg 48%
    17:00 +20°C° 0.2 mm 3 mps 607 mmHg 51%
    18:00 +18°C° 0.1 mm 3 mps 607 mmHg 58%
    19:00 +17°C° 0.1 mm 3 mps 607 mmHg 64%
    20:00 +14°C° 0.1 mm 3 mps 607 mmHg 70%
    21:00 +15°C° 0.1 mm 2 mps 606 mmHg 70%
    22:00 +14°C° 0.1 mm 2 mps 606 mmHg 71%
    23:00 +14°C° 0.1 mm 1 mps 606 mmHg 71%

    23 June, Sunday

    Time Temperature Precipitation Wind Pressure Humidity
    00:00 +13°C° 0 mm 1 mps 606 mmHg 72%
    01:00 +13°C° 0 mm 1 mps 605 mmHg 72%
    02:00 +12°C° 0 mm 1 mps 605 mmHg 73%
    03:00 +12°C° 0 mm 1 mps 605 mmHg 72%
    04:00 +13°C° 0 mm 1 mps 606 mmHg 71%
    05:00 +13°C° 0 mm 1 mps 606 mmHg 71%
    06:00 +14°C° 0 mm 1 mps 606 mmHg 65%
    07:00 +16°C° 0 mm 2 mps 607 mmHg 60%
    08:00 +17°C° 0 mm 2 mps 608 mmHg 54%
    09:00 +18°C° 0.2 mm 2 mps 608 mmHg 51%
    10:00 +19°C° 0.2 mm 3 mps 608 mmHg 49%
    11:00 +20°C° 0.2 mm 3 mps 608 mmHg 46%
    12:00 +19°C° 0.5 mm 3 mps 608 mmHg 49%
    13:00 +19°C° 0.5 mm 3 mps 608 mmHg 52%
    14:00 +18°C° 0.5 mm 3 mps 607 mmHg 56%
    15:00 +18°C° 0.8 mm 3 mps 607 mmHg 58%
    16:00 +17°C° 0.8 mm 3 mps 607 mmHg 61%
    17:00 +16°C° 0.8 mm 3 mps 607 mmHg 64%
    18:00 +14°C° 0.1 mm 3 mps 607 mmHg 65%
    19:00 +14°C° 0.1 mm 2 mps 607 mmHg 66%
    20:00 +13°C° 0.1 mm 2 mps 607 mmHg 67%
    21:00 +12°C° 0 mm 2 mps 607 mmHg 66%
    22:00 +12°C° 0 mm 1 mps 606 mmHg 65%
    23:00 +11°C° 0 mm 1 mps 606 mmHg 64%
    Show more